Home > Weather > Kranj > Past weeks

Flag for Slovenia Past Weather in Kranj, Slovenia — Yesterday and Last 2 Weeks

Now
73 °F

Passing clouds.


Feels Like: 77 °F
Forecast: 55 / 83 °F
Wind: 3 mph from North

Location: Ljubljana Airport / Brnik

Current Time: Jun 28, 2016 at 1:45:16 PM

Latest Report: Jun 28, 2016 at 1:00 PM


Visibility: N/A

Pressure: 30.07 "Hg

Humidity: 57%

Dew Point: 57 °F

Location of KranjLocation

Past Weather in Kranj — Graph

°F

Kranj Temperature Yesterday

Maximum temperature yesterday: 70 °F (at 9:00 AM)
Minimum temperature yesterday: 55 °F (at 11:30 PM)
Average temperature yesterday: 66 °F

High & Low Weather Summary for the Past Weeks

 TemperatureHumidityPressure
High88 °F (Jun 24, 2:00 PM)100% (Jun 14, 5:00 AM)30.30 "Hg (Jun 14, 5:00 AM)
Low48 °F (Jun 28, 5:30 AM)36% (Jun 18, 2:00 PM)29.53 "Hg (Jun 15, 5:30 AM)
Average67 °F76%29.97 "Hg
* Reported Jun 13 12:00 PM — Jun 28 12:30 PM, Kranj, Weather by CustomWeather, © 2016

Note: Actual official high and low records may vary slightly from our data, if they occured in-between our weather recording intervals... More about our weather records

Advertising

Kranj Weather History for the Previous 24 Hours

Scroll right to see more
 ConditionsComfort  
Time TempWeatherWind HumidityBarometerVisibility
12:30 PM
Tue, Jun 28
72 °FPassing clouds.5 mph53%30.09 "HgN/A
12:00 PM70 °FPassing clouds.3 mph60%30.09 "HgN/A
11:30 AM68 °FPassing clouds.2 mph64%30.09 "HgN/A
11:00 AM68 °FPassing clouds.2 mph64%30.09 "HgN/A
10:30 AM66 °FPassing clouds.1 mph73%30.09 "HgN/A
10:00 AM63 °FPassing clouds.2 mph77%30.12 "HgN/A
9:30 AM59 °FPassing clouds.2 mph88%30.12 "HgN/A
9:00 AM59 °FPassing clouds.2 mph88%30.12 "HgN/A
8:30 AM57 °FPassing clouds.No wind88%30.12 "HgN/A
8:00 AM54 °FScattered clouds.1 mph100%30.12 "HgN/A
7:30 AM54 °FFog.2 mph100%30.12 "Hg1 mi
7:00 AM54 °FFog.1 mph100%30.12 "Hg0 mi
6:30 AM54 °FFog.No wind100%30.09 "Hg0 mi
6:00 AM52 °FFog.1 mph94%30.12 "Hg1 mi
5:30 AM48 °FFog.2 mph100%30.09 "Hg1 mi
5:00 AM50 °FPassing clouds.No wind94%30.09 "HgN/A
4:00 AM50 °FFog.1 mph100%30.09 "HgN/A
3:30 AM50 °FFog.No wind100%30.09 "HgN/A
3:00 AM52 °FFog.No wind94%30.09 "HgN/A
2:30 AM54 °FFog.2 mph94%30.09 "HgN/A
2:00 AM54 °FFog.2 mph94%30.09 "HgN/A
1:30 AM54 °FFog.1 mph94%30.12 "HgN/A
1:00 AM54 °FFog.No wind100%30.12 "HgN/A
12:30 AM55 °FFog.No wind94%30.12 "HgN/A
12:00 AM55 °FFog.No wind94%30.12 "HgN/A
11:30 PM
Mon, Jun 27
55 °FPassing clouds.2 mph100%30.09 "HgN/A
11:00 PM57 °FPassing clouds.No wind94%30.09 "HgN/A
10:30 PM59 °FPassing clouds.2 mph94%30.09 "HgN/A
10:00 PM59 °FPassing clouds.1 mph94%30.09 "HgN/A
9:30 PM61 °FPassing clouds.No wind88%30.09 "HgN/A
9:00 PM61 °FPassing clouds.No wind94%30.07 "HgN/A
8:30 PM64 °FPassing clouds.2 mph83%30.07 "HgN/A
8:00 PM64 °FScattered clouds.2 mph78%30.07 "HgN/A
7:30 PM66 °FScattered clouds.5 mph73%30.04 "HgN/A
7:00 PM64 °FScattered clouds.5 mph78%30.04 "HgN/A
6:30 PM64 °FBroken clouds.6 mph83%30.07 "HgN/A
6:00 PM64 °FBroken clouds.6 mph83%30.04 "HgN/A
5:30 PM64 °FBroken clouds.7 mph88%30.04 "HgN/A
5:00 PM64 °FBroken clouds.8 mph88%30.04 "HgN/A
4:30 PM66 °FPartly sunny.No wind73%30.04 "HgN/A
4:00 PM63 °FPartly sunny.5 mph88%30.04 "HgN/A
3:30 PM63 °FThunderstorms. Partly sunny.6 mph88%30.04 "HgN/A
3:00 PM63 °FThunderstorms. Partly sunny.1 mph83%30.04 "HgN/A
2:30 PM64 °FThunderstorms. Partly sunny.2 mph83%30.04 "HgN/A
2:00 PM66 °FSprinkles. Partly sunny.9 mph68%30.04 "HgN/A
1:30 PM70 °FScattered showers. Partly sunny.7 mph53%30.01 "HgN/A
1:00 PM70 °FScattered showers. Partly sunny.5 mph60%30.01 "HgN/A
Weather by CustomWeather, © 2016

See weather overviewHow to use our weather pages